Location: Tel Aviv
(32.0670°N, 34.7670°E)
Time: 06:25:06
(UTC+03:00)

STRAND 1 - Visible Passes

Search period start: 29 March 2023 00:00
Search period end: 08 April 2023 00:00
Orbit: 766 x 780 km, 98.4° (Epoch: 28 March)

Date Brightness Start Highest point End Pass type
(mag) Time Alt. Az. Time Alt. Az. Time Alt. Az.
29 Mar ? 20:03:13 10° N 20:07:52 37° WNW 20:12:31 10° SW visible
30 Mar ? 05:36:33 10° ESE 05:39:52 18° ENE 05:43:10 10° NNE visible
30 Mar ? 19:28:30 10° NNE 19:33:36 86° WNW 19:38:41 10° SSW visible
31 Mar ? 20:34:31 10° NNW 20:37:58 19° WNW 20:41:25 10° WSW visible
01 Apr ? 06:05:21 10° SE 06:09:57 35° ENE 06:14:33 10° N visible
01 Apr ? 19:59:06 10° N 20:03:50 41° WNW 20:08:34 10° SW visible
02 Apr ? 05:32:49 10° ESE 05:35:51 16° ENE 05:38:53 10° NNE visible
02 Apr ? 19:24:26 10° NNE 19:29:33 86° ESE 19:34:38 10° SSW visible
03 Apr ? 20:30:16 10° NNW 20:33:56 20° WNW 20:37:36 10° WSW visible
04 Apr ? 06:01:25 10° SE 06:05:55 32° ENE 06:10:24 10° N visible
04 Apr ? 19:54:57 10° N 19:59:47 45° WNW 20:04:36 10° SW visible
05 Apr ? 05:29:06 10° E 05:31:50 15° ENE 05:34:33 10° NNE visible
05 Apr ? 19:20:22 10° NNE 19:25:28 79° ESE 19:30:33 10° S visible
06 Apr ? 20:26:02 10° NNW 20:29:54 22° WNW 20:33:45 10° WSW visible
07 Apr ? 05:57:30 10° SE 06:01:51 29° ENE 06:06:13 10° NNE visible
07 Apr ? 19:50:49 10° N 19:55:43 49° WNW 20:00:37 10° SSW visible
